TimeCST,TemperatureF,Dew PointF,Humidity,Sea Level PressureIn,VisibilityMPH,Wind Direction,Wind SpeedMPH,Gust SpeedMPH,PrecipitationIn,Events,Conditions,WindDirDegrees,DateUTC
12:52 AM,12.9,1.0,59,30.45,9.0,East,11.5,-,0.00,Snow,Light Snow,100,2013-12-08 06:52:00
1:52 AM,12.9,3.0,65,30.41,3.0,ESE,13.8,-,0.00,Snow,Light Snow,120,2013-12-08 07:52:00
1:59 AM,12.9,3.0,65,30.34,2.5,ESE,15.0,-,0.00,Snow,Light Snow,120,2013-12-08 07:59:00
2:52 AM,12.9,5.0,71,30.37,2.5,ESE,11.5,-,0.00,Snow,Light Snow,120,2013-12-08 08:52:00
3:52 AM,12.9,3.9,67,30.33,3.0,ESE,13.8,-,0.00,Snow,Light Snow,120,2013-12-08 09:52:00
4:06 AM,12.9,3.9,67,30.26,2.0,ESE,13.8,-,0.00,Snow,Light Snow,120,2013-12-08 10:06:00
4:21 AM,12.9,5.0,71,30.25,1.8,ESE,15.0,-,0.00,Snow,Light Snow,120,2013-12-08 10:21:00
4:52 AM,12.9,6.1,74,30.29,1.8,SE,11.5,-,0.00,Snow,Light Snow,130,2013-12-08 10:52:00
5:52 AM,12.9,7.0,77,30.26,1.5,SE,11.5,-,0.01,Snow,Light Snow,130,2013-12-08 11:52:00
6:52 AM,12.9,8.1,81,30.24,1.5,ESE,11.5,-,0.01,Snow,Light Snow,120,2013-12-08 12:52:00
7:50 AM,12.2,8.6,85,30.17,0.5,SE,9.2,-,0.01,Snow,Snow,130,2013-12-08 13:50:00
7:52 AM,12.9,8.1,81,30.23,0.5,SE,9.2,-,0.01,Snow,Snow,130,2013-12-08 13:52:00
8:52 AM,12.9,9.0,84,30.22,0.8,ESE,8.1,-,0.02,Snow,Light Snow,120,2013-12-08 14:52:00
9:52 AM,14.0,9.0,80,30.21,0.8,ESE,6.9,-,0.02,Snow,Light Snow,110,2013-12-08 15:52:00
10:52 AM,15.1,10.0,80,30.19,0.8,ESE,8.1,-,0.01,Snow,Light Snow,120,2013-12-08 16:52:00
11:34 AM,16.0,10.0,77,30.11,1.0,ESE,5.8,-,0.01,Snow,Light Snow,110,2013-12-08 17:34:00
11:52 AM,17.1,10.0,74,30.15,1.5,ESE,6.9,-,0.01,Snow,Light Snow,120,2013-12-08 17:52:00
12:26 PM,17.1,10.0,74,30.08,2.0,SE,4.6,-,0.00,Snow,Light Snow,130,2013-12-08 18:26:00
12:52 PM,17.1,10.0,74,30.12,3.0,SSE,4.6,-,0.00,Snow,Light Snow,160,2013-12-08 18:52:00
1:41 PM,18.0,10.9,74,30.05,4.0,SSE,4.6,-,0.00,Snow,Light Snow,150,2013-12-08 19:41:00
1:52 PM,18.0,10.9,74,30.10,4.0,SSE,3.5,-,0.00,Snow,Light Snow,160,2013-12-08 19:52:00
2:35 PM,18.0,10.9,74,30.03,1.5,Calm,Calm,-,0.00,Snow,Light Snow,0,2013-12-08 20:35:00
2:52 PM,18.0,12.0,78,30.08,1.2,Calm,Calm,-,0.00,Snow,Light Snow,0,2013-12-08 20:52:00
3:50 PM,17.6,12.2,79,30.03,3.0,Calm,Calm,-,0.00,Snow,Light Snow,0,2013-12-08 21:50:00
3:52 PM,18.0,12.0,78,30.08,3.0,Calm,Calm,-,0.00,Snow,Light Snow,0,2013-12-08 21:52:00
3:57 PM,18.0,12.0,78,30.02,2.5,Calm,Calm,-,0.00,Snow,Light Snow,0,2013-12-08 21:57:00
4:07 PM,18.0,12.0,78,30.03,5.0,NNW,3.5,-,0.00,Snow,Light Snow,330,2013-12-08 22:07:00
4:47 PM,17.6,10.4,73,30.04,2.5,North,5.8,-,0.00,Snow,Light Snow,350,2013-12-08 22:47:00
4:52 PM,17.1,10.9,77,30.09,3.0,NNW,4.6,-,0.00,Snow,Light Snow,340,2013-12-08 22:52:00
5:52 PM,17.1,12.0,81,30.11,2.5,NNW,8.1,-,0.00,Snow,Light Snow,340,2013-12-08 23:52:00
6:37 PM,16.0,12.0,84,30.09,2.0,NNW,6.9,-,0.01,Snow,Light Snow,330,2013-12-09 00:37:00
6:45 PM,16.0,12.0,84,30.09,3.0,NW,5.8,-,0.01,Snow,Light Snow,320,2013-12-09 00:45:00
6:52 PM,16.0,12.0,84,30.15,3.0,NW,5.8,-,0.01,Snow,Light Snow,320,2013-12-09 00:52:00
7:13 PM,16.0,12.0,84,30.11,2.0,NW,8.1,-,0.00,Snow,Light Snow,310,2013-12-09 01:13:00
7:52 PM,16.0,12.0,84,30.17,2.0,WNW,9.2,-,0.01,Snow,Light Snow,300,2013-12-09 01:52:00
8:45 PM,15.1,10.0,80,30.11,5.0,NW,10.4,-,0.00,Snow,Light Snow,310,2013-12-09 02:45:00
8:52 PM,15.1,10.0,80,30.17,6.0,NW,10.4,-,0.00,Snow,Light Snow,310,2013-12-09 02:52:00
9:52 PM,12.9,8.1,81,30.18,10.0,NW,11.5,-,0.00,,Scattered Clouds,310,2013-12-09 03:52:00
10:52 PM,12.0,7.0,80,30.21,10.0,WNW,10.4,-,N/A,,Partly Cloudy,290,2013-12-09 04:52:00
11:52 PM,10.9,6.1,81,30.22,10.0,WNW,11.5,-,N/A,,Partly Cloudy,290,2013-12-09 05:52:00